Regional Weather Roundup
Issued by NWS

Home | Current Version | Previous Version | Text Only | Print | Product List | Glossary Off
Versions: 1 2 3 4 5 6 7 8 9 10 11 12 13 14 15 16 17 18 19 20 21 22 23 24 25 26 27 28 29 30 31 32 33 34 35 36 37 38 39 40 41 42 43 44 45 46 47 48 49 50

237
ASUS43 KFSD 132110
RWRSD

WEATHER ROUNDUP FOR SOUTH DAKOTA
NATIONAL WEATHER SERVICE SIOUX FALLS SD
300 PM CST SAT FEB 13 2016

NOTE: "FAIR" INDICATES FEW OR NO CLOUDS BELOW 12,000 FEET WITH NO
SIGNIFICANT WEATHER AND/OR OBSTRUCTIONS TO VISIBILITY.


SDZ001>005-009-010-012>017-132200-
NORTHWEST AND NORTH CENTRAL SOUTH DAKOTA

CITY           SKY/WX    TMP DP  RH WIND       PRES   REMARKS
BUFFALO          N/A     29  26  89 S10       29.73S WCI  20
FAITH            N/A     28  23  81 SE23G30   29.80F WCI  14
MOBRIDGE       CLOUDY    20  15  81 SE23      29.94F HAZE    WCI   3
$$

SDZ012>016-024>037-041>051-057-063-072>074-132200-
SOUTHWEST AND SOUTH CENTRAL SOUTH DAKOTA

CITY           SKY/WX    TMP DP  RH WIND       PRES   REMARKS
RAPID CTY ARPT SUNNY     50  32  50 S9        29.78F
PIERRE         CLOUDY    28  19  69 SE20      29.98F WCI  15
CUSTER         SUNNY     55  26  32 W9        29.78F
ELLSWORTH AFB  SUNNY     51  33  49 S12       29.77F
PHILIP         LGT RAIN  41  32  70 SE14      29.83F
PINE RIDGE     CLOUDY    47  33  58 S16       29.81F
SPEARFISH      FAIR      54  36  50 E12       29.74F
WINNER         CLOUDY    29  19  66 S22G29    30.00F WCI  15
$$

SDZ004>011-016>023-039-040-132200-
NORTHEAST SOUTH DAKOTA

CITY           SKY/WX    TMP DP  RH WIND       PRES   REMARKS
ABERDEEN       CLOUDY    15   4  61 S28       30.17F WCI  -5
WATERTOWN      CLOUDY     8  -3  61 SE20      30.22F WCI -11
BROOKINGS      CLOUDY     8  -2  63 SE17      30.26F WCI -10
SISSETON         N/A      8   0  69 S21       30.28F WCI -12
$$

SDZ017-020-022-023-036>040-048>070-132200-
SOUTHEAST SOUTH DAKOTA

CITY           SKY/WX    TMP DP  RH WIND       PRES   REMARKS
SIOUX FALLS    FLURRIES   9  -1  64 SE17      30.30F WCI  -9
HURON          CLOUDY    13   3  64 SE22G32   30.18F WCI  -6
CHAMBERLAIN    CLOUDY    24  13  61 SE18G25   30.07F WCI  11
MITCHELL       CLOUDY    13   5  70 SE24G33   30.23F WCI  -7
YANKTON        CLOUDY    12   7  79 SE15      30.29F WCI  -4
$$

ABBREVIATIONS USED IN REMARKS
   TC - TEMPERATURE IN CELSIUS
  WCI - WIND CHILL INDEX
   HX - HEAT INDEX
  VSB - VISIBILITY





USA.gov is the U.S. government's official web portal to all federal, state and local government web resources and services.